Temperature
27 27 27 27 27 27 27 27 27 27 28 27 27 26 25 24 24 24 24 23 23 23 22 21 21 20 20 20 20 19 19 19 19 19 18 18 18 17 17 16 16 16 15 15
26 27 27 27 27 27 27 27 27 27 27 27 25 24 23 23 23 23 23 23 23 22 22 21 21 20 20 20 20 19 19 19 19 19 18 18 18 17 17 17 16 16 15 15
26 27 26 26 27 27 27 27 27 27 27 25 24 23 21 21 21 21 21 21 22 21 21 21 21 20 20 20 20 19 19 19 19 19 18 18 17 17 17 17 16 16 16 15
25 25 24 27 27 27 26 26 26 26 25 24 23 21 20 19 19 19 20 20 20 20 20 20 20 20 20 19 19 19 19 19 19 18 18 18 17 17 17 16 16 16 16 15
25 25 25 26 26 26 25 25 25 24 24 23 22 22 20 18 18 18 18 18 19 19 19 19 19 19 19 19 19 18 18 18 18 18 18 17 17 17 17 16 16 16 15 15
24 24 24 25 25 24 25 24 24 23 23 22 22 23 21 17 17 17 17 17 18 18 18 18 18 18 18 18 18 17 17 17 17 17 17 17 17 17 16 16 16 15 15 15
24 23 25 25 24 24 24 23 22 22 21 21 21 20 17 16 16 16 16 17 17 17 17 18 17 18 17 17 17 17 16 16 16 16 16 16 16 16 16 15 15 15 14 14
23 23 24 23 24 24 22 20 21 20 20 19 18 17 16 15 15 15 16 16 16 16 16 16 16 17 16 16 16 15 15 15 16 16 16 15 15 15 15 15 14 14 14 14
24 23 22 22 22 20 20 20 20 19 18 18 17 16 15 15 15 15 15 15 15 16 16 15 15 16 16 15 15 15 15 15 15 15 15 15 14 14 14 14 14 13 13 13
23 23 22 21 20 19 19 19 19 18 17 17 16 15 15 14 14 14 14 14 15 15 15 14 14 14 14 14 14 14 14 14 14 14 14 14 14 13 13 13 13 13 13 13
22 22 21 20 19 18 18 17 17 16 16 16 15 15 14 14 13 13 13 13 13 13 13 13 13 13 13 13 13 13 13 13 13 13 13 13 12 12 12 12 12 12 12 12
21 20 20 19 18 17 17 16 16 15 15 15 15 14 14 13 13 13 13 13 13 13 13 12 12 12 12 12 12 12 12 12 12 12 12 12 12 12 12 11 11 11 11 11
18 18 17 17 16 16 16 15 15 14 14 14 13 13 13 13 12 12 12 12 12 12 12 11 11 11 11 11 11 11 11 11 11 11 12 11 11 11 11 11 11 11 10 10
16 16 16 16 15 15 15 14 14 14 13 13 13 13 13 12 12 12 12 12 11 11 11 11 11 11 10 10 10 11 11 11 11 11 11 11 11 11 11 11 10 10 10 10
15 15 15 14 14 14 14 14 13 13 12 12 12 12 12 12 12 12 11 11 11 11 11 11 11 10 10 10 10 10 10 10 10 10 10 10 10 10 10 10 10 10 10 10
14 14 14 13 13 13 13 13 13 12 12 12 12 12 12 11 11 11 11 11 11 11 10 10 10 10 10 10 10 10 10 10 10 10 10 10 10 10 10 10 9 9 9 9
14 13 13 13 13 12 12 12 12 12 11 11 11 11 11 11 11 11 11 11 11 10 10 10 10 10 9 9 9 10 10 10 9 10 10 9 9 9 9 9 9 9 8 8
13 13 13 12 12 12 12 12 11 11 11 11 11 11 11 11 11 11 11 10 10 10 10 10 10 9 9 9 9 9 9 10 10 9 9 9 8 8 8 8 8 8 8 8
12 12 12 11 11 11 11 11 11 11 11 11 11 11 11 11 10 10 10 10 10 10 10 9 9 9 9 8 8 8 9 9 9 9 8 8 8 8 8 8 7 7 7 7
11 11 11 11 11 11 11 11 11 11 11 11 11 11 10 10 10 10 10 10 10 10 9 9 9 8 8 8 8 8 8 8 8 8 8 7 7 7 7 7 6 6 6 6
11 11 11 11 11 11 11 10 10 10 10 10 10 10 10 10 10 10 10 10 9 9 9 8 8 8 8 7 7 8 8 7 7 7 7 6 6 6 6 5 5 5 5 4
10 10 10 10 10 10 10 10 10 10 10 10 10 10 10 9 10 9 9 9 8 8 8 8 7 7 7 7 7 7 7 6 6 6 6 5 5 5 5 4 4 4 4 3
10 10 10 10 10 10 10 10 10 10 9 9 9 9 9 9 9 9 9 8 8 8 7 7 7 6 6 6 6 6 5 5 5 5 5 4 4 4 3 3 3 3 3 3
10 9 9 9 9 9 9 9 9 9 9 9 9 8 8 9 9 8 8 7 7 6 6 6 6 6 5 5 5 5 4 4 4 4 4 3 3 3 3 2 2 2 2 2
9 9 9 9 9 9 9 9 9 9 9 9 9 8 8 8 8 7 7 6 6 6 5 5 5 5 4 4 4 4 3 3 3 3 2 2 2 2 2 2 2 2 1 1
8 9 8 8 8 8 9 9 9 8 9 8 8 8 7 7 7 6 6 5 5 5 4 4 4 4 3 3 3 3 2 2 2 2 2 1 1 1 1 1 1 1 1 1
8 8 8 8 8 8 8 8 8 8 8 7 7 7 7 6 6 6 5 5 4 4 4 3 3 3 3 2 2 2 2 2 1 1 1 1 1 1 1 0 0 0 1 1
Wind_Speed
10 6 7 9 10 11 12 13 13 11 9 6 4 3 3 2 4 7 10 14 15 15 15 15 15 15 15 14 14 14 15 15 15 14 13 13 13 12 12 12 12 11 11 11
10 9 9 11 11 11 12 13 13 13 11 4 3 3 3 2 2 5 7 10 13 14 14 14 14 14 14 14 13 13 14 14 13 13 13 13 12 12 12 12 11 11 12 12
10 8 9 13 11 11 11 10 10 11 6 1 2 3 4 3 2 1 3 5 8 10 11 11 12 12 13 13 13 13 14 13 13 13 13 13 12 12 12 11 11 11 12 12
8 7 11 3 2 4 7 7 6 5 3 2 1 2 4 4 3 2 1 1 3 5 7 8 8 9 10 11 12 13 13 12 12 12 12 12 12 12 11 10 10 11 12 12
8 11 10 4 2 3 5 5 1 2 1 1 3 4 6 7 6 5 4 2 2 2 3 4 6 7 8 9 9 10 11 11 11 12 11 11 12 11 10 10 10 11 11 12
7 8 8 1 4 1 3 4 3 1 1 2 3 3 4 7 7 7 6 6 6 6 6 6 5 6 7 7 7 7 7 8 8 8 9 10 10 10 9 9 10 10 11 11
9 8 5 4 4 4 5 2 4 2 2 2 2 5 6 6 8 9 9 9 9 9 9 8 6 7 7 6 4 3 4 5 5 6 7 7 7 7 7 8 8 9 10 10
6 7 3 5 3 1 3 4 4 4 5 7 9 9 9 8 9 10 11 11 11 10 10 9 8 7 8 6 4 3 3 3 3 3 4 4 5 5 6 6 8 9 9 10
2 1 5 2 2 3 2 4 5 6 8 10 11 10 10 10 10 10 11 11 10 11 12 11 9 8 8 6 4 4 3 3 2 2 2 2 3 5 5 6 7 8 8 9
2 1 3 2 2 1 3 5 7 8 10 11 12 11 11 10 10 10 10 10 10 11 11 10 9 9 8 6 5 5 4 3 2 1 1 1 2 3 4 5 6 7 8 9
4 1 2 4 3 3 6 9 11 11 11 12 13 12 11 10 9 9 9 9 10 11 10 10 10 9 8 7 6 5 5 4 2 2 1 1 1 2 4 4 4 6 8 9
3 4 3 3 3 6 9 11 12 13 13 12 12 12 11 10 9 9 9 8 9 10 10 10 10 9 9 8 7 6 5 4 3 2 2 2 2 2 3 5 3 6 8 9
3 3 3 4 6 8 11 13 13 14 13 12 11 10 10 9 8 8 8 8 8 8 8 8 8 8 7 7 6 6 5 5 4 4 4 4 5 5 6 5 8 11 12 12
3 4 6 8 10 12 14 15 15 14 13 11 10 9 8 8 7 7 7 6 6 6 6 6 6 6 6 5 5 5 4 4 3 4 5 5 6 6 7 8 8 8 8 10
5 6 10 12 13 13 13 14 14 13 11 10 9 7 6 6 6 5 5 4 4 4 5 5 5 5 5 4 4 5 5 5 5 6 6 6 7 7 8 9 9 10 10 8
9 12 14 14 14 13 13 14 13 11 9 7 6 5 4 3 3 3 3 2 2 3 4 4 4 4 4 4 4 4 3 3 5 7 7 7 7 8 9 9 10 10 11 11
11 12 13 13 13 12 12 11 10 8 6 4 3 2 1 1 1 1 1 2 2 2 2 3 3 4 4 5 6 7 7 5 5 7 7 8 8 9 10 10 11 11 12 11
11 11 12 12 11 10 9 9 8 6 3 1 2 2 3 3 3 3 3 3 3 3 2 2 3 5 5 5 6 8 8 9 8 8 9 9 9 10 11 11 12 13 12 12
13 13 12 11 9 8 7 5 4 2 1 1 2 3 3 3 4 4 4 4 4 4 3 4 3 6 6 5 7 7 9 10 10 9 9 9 10 10 10 11 12 12 12 12
12 11 10 8 7 6 4 3 2 1 2 3 3 3 4 4 4 4 5 4 3 5 5 5 6 6 6 6 7 9 10 10 10 10 9 10 10 11 11 11 12 12 12 12
9 8 7 5 4 3 2 2 2 2 2 3 3 4 4 4 5 5 5 5 3 4 5 4 4 5 7 8 9 10 10 10 10 10 10 10 10 11 11 11 12 11 11 11
6 5 4 2 1 2 2 2 3 3 3 3 4 4 5 5 5 5 4 4 4 4 5 5 5 7 9 11 9 9 9 9 9 9 9 9 9 10 10 11 11 11 11 11
4 3 3 3 3 3 2 2 3 3 3 4 4 5 6 6 6 6 6 3 4 4 5 5 6 7 10 9 8 8 8 8 8 8 9 9 9 9 9 10 10 10 10 10
2 2 3 4 4 3 3 4 4 4 5 5 4 4 6 6 5 5 5 2 3 4 4 4 3 7 9 6 7 7 7 7 8 8 9 8 8 8 9 9 9 9 10 11
2 3 3 4 4 4 4 5 5 5 6 4 5 4 5 5 6 5 5 4 3 4 5 2 0 6 6 6 6 6 6 7 8 8 8 8 8 8 8 9 9 9 9 9
4 4 4 5 5 5 5 5 6 5 6 5 5 5 5 5 5 4 4 4 5 4 5 5 5 5 5 6 6 6 6 6 6 7 8 8 8 8 8 9 10 9 9 9
5 4 4 5 4 5 6 6 6 6 6 6 6 6 6 6 5 5 5 5 5 5 5 5 5 5 5 6 6 6 6 6 7 7 7 7 7 8 8 10 8 8 9 9
Wind_Direction
256 255 254 252 239 228 236 257 271 280 284 296 330 341 323 272 224 208 198 197 198 199 198 199 200 201 203 202 201 199 197 199 200 198 197 197 197 198 200 204 210 213 218 222
245 243 248 253 250 245 243 254 262 272 279 321 18 11 1 332 243 218 209 206 204 204 203 202 203 203 202 202 198 194 197 201 198 193 192 194 196 198 201 206 213 215 220 225
248 233 244 246 244 246 245 250 263 271 285 11 344 12 15 9 350 252 230 221 211 207 207 206 205 204 203 199 194 192 197 197 193 191 193 194 196 199 203 206 211 217 224 228
248 234 243 249 63 266 260 261 266 272 294 319 1 61 57 39 28 19 357 243 209 202 197 199 199 198 196 195 192 193 195 196 193 192 193 193 198 203 206 211 216 222 228 232
242 242 248 222 196 237 252 261 297 277 274 134 127 138 91 52 41 39 37 43 77 127 152 156 166 172 173 181 185 189 194 195 194 192 192 193 200 206 209 214 220 225 229 235
233 251 254 182 119 143 252 230 99 97 145 161 198 223 79 46 45 50 53 61 70 78 85 96 111 133 146 156 170 184 188 188 188 190 194 198 204 209 212 218 228 234 235 236
238 247 256 91 128 193 248 69 91 94 126 141 84 62 84 68 61 61 62 65 69 74 75 75 85 106 114 118 135 160 167 171 177 185 200 206 207 209 216 222 232 240 246 245
231 239 230 111 169 257 47 92 106 106 115 109 105 103 96 84 74 70 71 69 70 74 72 69 72 85 91 86 87 103 122 143 158 174 204 208 210 215 221 233 237 241 246 254
254 27 72 79 49 63 110 128 124 122 121 120 116 111 102 92 83 75 72 70 69 72 70 62 60 66 71 61 61 77 93 108 123 144 180 220 224 226 229 232 249 255 256 260
266 76 68 73 69 124 137 131 124 121 122 121 116 111 103 95 87 79 73 72 73 73 71 65 58 58 60 54 56 73 76 74 84 108 163 199 241 248 256 257 260 268 272 274
258 343 81 64 54 112 126 124 120 115 115 115 114 109 105 98 89 83 79 76 76 76 76 72 67 61 54 51 54 63 65 64 62 68 50 285 267 286 280 289 303 291 291 292
320 16 348 37 68 127 132 128 124 120 115 112 109 108 104 97 92 88 84 80 76 73 72 69 66 62 54 50 50 49 50 40 29 17 5 328 315 298 230 253 258 252 257 272
330 3 56 94 105 120 124 122 120 118 115 111 105 105 103 98 95 91 87 84 82 79 76 71 66 61 52 48 48 45 36 23 9 2 353 339 328 317 310 276 236 239 242 243
77 107 106 108 110 112 115 114 111 108 105 104 104 103 100 97 93 87 81 80 84 84 79 73 65 57 47 42 36 26 16 26 356 347 340 331 324 316 310 310 308 301 264 234
76 101 115 114 112 112 114 114 109 104 100 95 92 88 83 81 83 84 84 82 82 79 69 59 51 43 29 21 15 3 352 351 349 335 322 320 317 312 309 308 306 306 307 294
98 106 112 114 114 115 116 112 107 101 95 92 84 74 63 55 64 74 78 70 52 45 39 31 28 20 10 359 345 330 324 320 308 313 313 313 312 310 309 307 304 303 303 306
115 116 118 117 113 109 107 105 100 94 86 77 76 73 57 13 21 45 34 26 10 353 350 357 359 354 343 337 326 322 323 318 286 298 310 315 314 310 308 305 303 303 304 310
102 106 110 110 109 109 109 107 103 99 89 53 4 351 337 331 331 343 337 330 314 307 333 345 346 327 321 325 321 316 314 314 315 316 316 313 313 308 304 303 305 305 306 306
96 98 99 101 104 105 107 107 108 106 100 336 327 322 318 319 322 318 317 310 306 310 351 352 340 310 320 333 325 300 305 311 312 312 310 310 301 303 307 309 308 307 308 309
91 91 93 93 91 90 83 64 45 20 344 327 320 315 317 325 323 316 313 306 338 355 350 341 322 321 323 333 324 310 310 312 312 313 313 312 312 311 310 310 311 311 312 311
95 95 94 88 79 70 57 18 339 328 331 330 323 316 319 323 320 314 307 313 14 4 330 300 307 332 334 333 304 308 314 317 315 314 314 313 312 312 313 315 315 315 313 313
91 86 78 68 41 9 2 344 331 325 331 331 326 321 314 310 310 306 305 315 335 3 321 324 348 11 342 318 314 318 319 318 317 318 319 318 316 316 316 317 318 318 317 317
65 46 19 3 354 349 346 334 330 329 324 322 321 317 315 316 315 311 310 337 336 356 326 346 11 353 320 311 321 321 322 324 323 322 322 323 321 319 318 320 321 319 319 319
37 10 349 339 330 323 323 324 323 319 310 300 300 305 305 303 305 316 334 32 8 334 329 25 4 325 304 316 327 330 331 331 329 329 329 326 324 322 323 323 322 323 323 323
355 336 332 322 312 316 316 305 298 294 295 301 304 308 310 320 322 327 330 334 359 312 319 7 302 313 320 340 343 340 342 351 346 336 333 332 332 332 332 332 333 329 329 331
333 318 324 314 314 310 307 309 310 311 310 310 314 325 327 326 322 317 313 321 335 338 332 339 350 340 352 356 355 354 356 354 349 349 349 343 341 343 342 342 339 339 337 337
303 298 289 294 303 312 313 311 310 312 317 324 325 322 321 322 323 329 330 331 337 344 350 359 5 7 8 7 6 9 10 8 4 360 356 352 351 350 349 346 344 342 340 340
Height
1465 1464 1466 1466 1467 1469 1472 1471 1473 1469 1467 1466 1468 1472 1475 1477 1477 1479 1481 1483 1486 1489 1492 1496 1499 1502 1505 1508 1511 1514 1516 1518 1521 1523 1526 1528 1530 1532 1533 1535 1537 1538 1539 1540
1468 1464 1465 1467 1464 1464 1467 1467 1467 1466 1467 1466 1471 1474 1476 1477 1477 1477 1479 1481 1483 1486 1489 1492 1494 1497 1500 1503 1506 1509 1511 1513 1516 1518 1521 1523 1525 1527 1529 1530 1532 1533 1534 1536
1470 1463 1467 1469 1461 1461 1463 1462 1464 1465 1465 1468 1472 1475 1477 1478 1477 1477 1478 1479 1481 1483 1485 1487 1490 1493 1495 1498 1501 1504 1506 1509 1511 1513 1515 1518 1520 1522 1524 1525 1527 1528 1530 1531
1467 1472 1482 1461 1457 1459 1460 1460 1461 1464 1467 1470 1474 1477 1478 1478 1478 1477 1477 1477 1478 1480 1482 1484 1486 1488 1491 1494 1497 1499 1501 1503 1506 1508 1510 1513 1516 1518 1519 1521 1522 1523 1525 1525
1467 1470 1466 1459 1459 1460 1462 1463 1464 1466 1469 1472 1473 1474 1477 1479 1478 1478 1477 1477 1477 1478 1479 1481 1483 1485 1487 1490 1492 1495 1497 1499 1501 1503 1506 1508 1511 1513 1515 1516 1517 1518 1519 1520
1467 1474 1475 1460 1459 1462 1464 1466 1467 1469 1470 1471 1472 1469 1476 1480 1479 1478 1478 1477 1477 1477 1478 1479 1481 1482 1484 1486 1489 1491 1493 1495 1497 1500 1502 1504 1506 1508 1510 1511 1512 1513 1513 1513
1466 1470 1461 1458 1461 1464 1470 1469 1470 1470 1471 1472 1473 1476 1481 1481 1480 1479 1478 1478 1478 1478 1478 1479 1481 1482 1483 1485 1488 1489 1491 1492 1494 1496 1499 1501 1502 1503 1505 1506 1507 1507 1508 1507
1464 1470 1467 1462 1462 1463 1468 1470 1471 1472 1473 1475 1477 1480 1481 1482 1482 1481 1480 1480 1480 1480 1479 1480 1481 1482 1482 1485 1487 1488 1489 1490 1492 1493 1495 1497 1498 1499 1500 1500 1501 1501 1501 1501
1459 1463 1464 1464 1465 1468 1470 1471 1472 1474 1476 1477 1479 1482 1483 1484 1484 1484 1482 1482 1482 1482 1481 1482 1483 1483 1483 1485 1486 1487 1488 1489 1490 1491 1492 1493 1494 1495 1495 1495 1496 1497 1496 1496
1460 1459 1464 1466 1468 1469 1470 1472 1474 1476 1477 1479 1481 1483 1485 1486 1486 1486 1486 1485 1485 1484 1484 1484 1484 1484 1485 1486 1486 1486 1487 1487 1488 1488 1489 1490 1491 1491 1492 1492 1492 1492 1491 1490
1461 1462 1465 1467 1469 1470 1471 1473 1475 1477 1479 1481 1483 1485 1487 1488 1488 1488 1488 1488 1487 1487 1486 1486 1486 1486 1486 1486 1486 1486 1486 1487 1487 1487 1487 1488 1487 1487 1488 1487 1487 1486 1485 1484
1462 1466 1467 1469 1470 1471 1473 1475 1477 1479 1482 1484 1486 1487 1489 1490 1491 1491 1491 1491 1490 1489 1489 1488 1488 1488 1488 1487 1487 1487 1487 1487 1487 1487 1486 1486 1485 1485 1483 1483 1481 1480 1478 1477
1469 1469 1469 1471 1472 1473 1475 1477 1480 1482 1485 1487 1489 1490 1492 1493 1493 1493 1493 1493 1492 1492 1491 1491 1491 1490 1490 1489 1488 1488 1487 1486 1486 1486 1485 1484 1483 1482 1480 1479 1476 1474 1472 1470
1470 1470 1471 1473 1474 1476 1478 1481 1483 1486 1488 1490 1492 1493 1494 1495 1495 1495 1495 1495 1494 1494 1493 1493 1492 1492 1491 1490 1489 1488 1488 1486 1485 1484 1483 1482 1480 1479 1477 1475 1473 1470 1468 1465
1471 1471 1473 1475 1477 1480 1482 1484 1487 1489 1492 1493 1494 1495 1496 1497 1497 1497 1496 1496 1496 1495 1495 1494 1493 1492 1491 1490 1489 1488 1487 1486 1484 1483 1481 1479 1478 1476 1473 1471 1468 1466 1463 1461
1474 1475 1476 1478 1481 1483 1486 1488 1490 1493 1495 1496 1496 1497 1498 1498 1498 1498 1497 1497 1497 1496 1495 1494 1493 1492 1491 1490 1488 1487 1485 1483 1482 1480 1478 1476 1474 1472 1469 1467 1464 1461 1459 1456
1477 1479 1480 1482 1485 1487 1489 1491 1493 1494 1496 1497 1498 1498 1498 1499 1498 1498 1498 1497 1496 1495 1494 1493 1492 1491 1489 1488 1487 1486 1484 1481 1479 1477 1475 1472 1470 1468 1465 1463 1460 1457 1454 1451
1481 1482 1484 1485 1487 1490 1492 1494 1495 1497 1498 1499 1499 1499 1499 1499 1498 1498 1497 1496 1495 1494 1493 1492 1490 1489 1487 1486 1484 1482 1481 1478 1476 1474 1471 1469 1466 1464 1461 1458 1455 1452 1448 1445
1485 1486 1488 1490 1491 1493 1494 1496 1497 1497 1498 1498 1499 1498 1498 1497 1497 1496 1495 1494 1493 1492 1491 1489 1487 1486 1485 1483 1480 1479 1477 1474 1472 1469 1467 1464 1462 1459 1456 1453 1450 1447 1443 1439
1489 1490 1492 1493 1494 1495 1496 1497 1498 1498 1498 1498 1497 1497 1496 1496 1495 1494 1493 1492 1491 1490 1488 1486 1484 1483 1481 1479 1476 1475 1473 1470 1468 1465 1463 1460 1457 1454 1451 1448 1445 1441 1438 1434
1492 1493 1494 1495 1496 1497 1497 1497 1497 1497 1497 1496 1496 1495 1495 1494 1493 1492 1490 1489 1488 1486 1485 1483 1481 1479 1477 1475 1472 1471 1468 1466 1463 1461 1458 1455 1453 1450 1447 1443 1440 1436 1433 1429
1495 1495 1496 1496 1497 1497 1497 1496 1496 1496 1495 1495 1494 1493 1492 1491 1490 1489 1488 1487 1485 1483 1481 1480 1478 1475 1473 1471 1469 1467 1464 1461 1459 1456 1454 1451 1448 1445 1442 1439 1435 1432 1428 1424
1496 1496 1496 1496 1496 1496 1495 1495 1495 1494 1493 1493 1492 1491 1490 1489 1487 1486 1485 1483 1482 1479 1478 1476 1474 1471 1469 1467 1465 1462 1460 1457 1455 1453 1450 1447 1444 1441 1438 1435 1431 1428 1424 1420
1496 1496 1496 1496 1495 1494 1494 1493 1493 1492 1491 1490 1489 1488 1487 1486 1484 1483 1481 1479 1477 1475 1474 1472 1469 1467 1465 1463 1461 1458 1456 1454 1452 1449 1446 1443 1441 1438 1434 1431 1428 1424 1420 1417
1496 1496 1495 1494 1494 1493 1492 1491 1490 1489 1488 1487 1486 1485 1484 1482 1481 1479 1478 1476 1474 1472 1471 1468 1465 1463 1462 1460 1457 1455 1453 1451 1448 1446 1443 1441 1438 1435 1431 1428 1425 1421 1417 1414
1495 1494 1494 1493 1492 1491 1490 1489 1487 1486 1485 1484 1483 1482 1480 1479 1477 1476 1474 1472 1471 1469 1467 1465 1463 1461 1459 1457 1455 1453 1451 1448 1446 1443 1441 1438 1435 1432 1429 1426 1422 1419 1416 1412
1493 1492 1491 1490 1489 1488 1487 1486 1485 1484 1482 1481 1480 1479 1477 1476 1474 1473 1471 1469 1468 1466 1465 1463 1461 1459 1457 1455 1453 1451 1449 1447 1444 1442 1439 1436 1434 1431 1428 1425 1421 1418 1414 1411